Time,TemperatureF,DewpointF,PressureIn,WindDirection,WindDirectionDegrees,WindSpeedMPH,WindSpeedGustMPH,Humidity,HourlyPrecipIn,Conditions,Clouds,dailyrainin,SoftwareType,DateUTC
2013-06-15 00:01:00,61.0,20.0,-100.00,WNW,298,4.0,7.0,20,-99.99,,,-99.99,,2013-06-15 07:01:00,
2013-06-15 00:11:00,61.0,20.0,-100.00,WNW,298,4.0,7.0,20,-99.99,,,-99.99,,2013-06-15 07:11:00,
2013-06-15 01:02:00,59.0,19.0,-100.00,NW,326,2.0,6.0,21,-99.99,,,-99.99,,2013-06-15 08:02:00,
2013-06-15 01:11:00,59.0,19.0,-100.00,NW,326,2.0,6.0,21,-99.99,,,-99.99,,2013-06-15 08:11:00,
2013-06-15 01:22:00,57.0,21.0,-100.00,NW,322,0.0,6.0,24,-99.99,,,-99.99,,2013-06-15 08:22:00,
2013-06-15 01:33:00,57.0,21.0,-100.00,NW,322,0.0,6.0,24,-99.99,,,-99.99,,2013-06-15 08:33:00,
2013-06-15 02:02:00,59.0,18.0,-100.00,SSW,200,1.0,7.0,20,-99.99,,,-99.99,,2013-06-15 09:02:00,
2013-06-15 02:11:00,59.0,18.0,-100.00,SSW,200,1.0,7.0,20,-99.99,,,-99.99,,2013-06-15 09:11:00,
2013-06-15 02:33:00,58.0,19.0,-100.00,West,274,0.0,1.0,22,-99.99,,,-99.99,,2013-06-15 09:33:00,
2013-06-15 03:02:00,54.0,22.0,-100.00,North,-999,-999.0,-999.0,29,-99.99,,,-99.99,,2013-06-15 10:02:00,
2013-06-15 03:11:00,54.0,22.0,-100.00,West,264,2.0,7.0,29,-99.99,,,-99.99,,2013-06-15 10:11:00,
2013-06-15 03:23:00,54.0,22.0,-100.00,West,264,2.0,7.0,29,-99.99,,,-99.99,,2013-06-15 10:23:00,
2013-06-15 03:33:00,52.0,20.0,-100.00,West,265,0.0,3.0,28,-99.99,,,-99.99,,2013-06-15 10:33:00,
2013-06-15 03:43:00,52.0,20.0,-100.00,West,265,0.0,3.0,28,-99.99,,,-99.99,,2013-06-15 10:43:00,
2013-06-15 03:53:00,54.0,18.0,-100.00,SW,230,1.0,9.0,24,-99.99,,,-99.99,,2013-06-15 10:53:00,
2013-06-15 04:11:00,53.0,18.0,-100.00,WSW,253,1.0,7.0,25,-99.99,,,-99.99,,2013-06-15 11:11:00,
2013-06-15 04:43:00,51.0,19.0,-100.00,SSE,147,0.0,8.0,28,-99.99,,,-99.99,,2013-06-15 11:43:00,
2013-06-15 04:53:00,52.0,18.0,-100.00,WNW,287,1.0,3.0,26,-99.99,,,-99.99,,2013-06-15 11:53:00,
2013-06-15 05:01:00,52.0,18.0,-100.00,WNW,287,1.0,3.0,26,-99.99,,,-99.99,,2013-06-15 12:01:00,
2013-06-15 05:11:00,52.0,19.0,-100.00,SSW,196,0.0,2.0,27,-99.99,,,-99.99,,2013-06-15 12:11:00,
2013-06-15 05:22:00,52.0,19.0,-100.00,SSW,196,0.0,2.0,27,-99.99,,,-99.99,,2013-06-15 12:22:00,
2013-06-15 05:33:00,52.0,19.0,-100.00,SSW,196,0.0,2.0,27,-99.99,,,-99.99,,2013-06-15 12:33:00,
2013-06-15 05:43:00,51.0,19.0,-100.00,SSW,212,1.0,10.0,28,-99.99,,,-99.99,,2013-06-15 12:43:00,
2013-06-15 05:52:00,51.0,19.0,-100.00,SSW,212,1.0,10.0,28,-99.99,,,-99.99,,2013-06-15 12:52:00,
2013-06-15 06:02:00,52.0,18.0,-100.00,WSW,243,1.0,10.0,26,-99.99,,,-99.99,,2013-06-15 13:02:00,
2013-06-15 06:11:00,52.0,18.0,-100.00,WSW,243,1.0,10.0,26,-99.99,,,-99.99,,2013-06-15 13:11:00,
2013-06-15 06:22:00,52.0,21.0,-100.00,SSW,199,0.0,2.0,29,-99.99,,,-99.99,,2013-06-15 13:22:00,
2013-06-15 07:01:00,58.0,27.0,-100.00,NE,41,0.0,6.0,30,-99.99,,,-99.99,,2013-06-15 14:01:00,
2013-06-15 07:34:00,54.0,26.0,-100.00,East,80,1.0,4.0,34,-99.99,,,-99.99,,2013-06-15 14:34:00,
2013-06-15 07:43:00,57.0,28.0,-100.00,East,82,1.0,6.0,33,-99.99,,,-99.99,,2013-06-15 14:43:00,
2013-06-15 07:53:00,57.0,28.0,-100.00,East,82,1.0,6.0,33,-99.99,,,-99.99,,2013-06-15 14:53:00,
2013-06-15 08:01:00,59.0,29.0,-100.00,ENE,78,1.0,8.0,32,-99.99,,,-99.99,,2013-06-15 15:01:00,
2013-06-15 08:22:00,59.0,33.0,-100.00,East,82,1.0,5.0,37,-99.99,,,-99.99,,2013-06-15 15:22:00,
2013-06-15 08:33:00,59.0,33.0,-100.00,East,82,1.0,5.0,37,-99.99,,,-99.99,,2013-06-15 15:33:00,
2013-06-15 08:43:00,59.0,32.0,-100.00,East,89,2.0,6.0,36,-99.99,,,-99.99,,2013-06-15 15:43:00,
2013-06-15 08:53:00,59.0,32.0,-100.00,East,89,2.0,6.0,36,-99.99,,,-99.99,,2013-06-15 15:53:00,
2013-06-15 09:01:00,59.0,32.0,-100.00,East,89,2.0,6.0,36,-99.99,,,-99.99,,2013-06-15 16:01:00,
2013-06-15 09:11:00,60.0,34.0,-100.00,East,83,2.0,6.0,38,-99.99,,,-99.99,,2013-06-15 16:11:00,
2013-06-15 09:22:00,60.0,34.0,-100.00,East,83,2.0,6.0,38,-99.99,,,-99.99,,2013-06-15 16:22:00,
2013-06-15 09:33:00,60.0,31.0,-100.00,East,92,3.0,10.0,33,-99.99,,,-99.99,,2013-06-15 16:33:00,
2013-06-15 09:43:00,60.0,31.0,-100.00,East,92,3.0,10.0,33,-99.99,,,-99.99,,2013-06-15 16:43:00,
2013-06-15 09:53:00,62.0,32.0,-100.00,ESE,103,3.0,11.0,32,-99.99,,,-99.99,,2013-06-15 16:53:00,
2013-06-15 10:01:00,62.0,32.0,-100.00,ESE,103,3.0,11.0,32,-99.99,,,-99.99,,2013-06-15 17:01:00,
2013-06-15 10:11:00,65.0,31.0,-100.00,East,95,4.0,8.0,28,-99.99,,,-99.99,,2013-06-15 17:11:00,
2013-06-15 10:21:00,65.0,31.0,-100.00,East,95,4.0,8.0,28,-99.99,,,-99.99,,2013-06-15 17:21:00,
2013-06-15 10:32:00,65.0,31.0,-100.00,East,95,4.0,8.0,28,-99.99,,,-99.99,,2013-06-15 17:32:00,
2013-06-15 10:43:00,66.0,28.0,-100.00,ESE,103,3.0,10.0,24,-99.99,,,-99.99,,2013-06-15 17:43:00,
2013-06-15 10:52:00,66.0,28.0,-100.00,ESE,103,3.0,10.0,24,-99.99,,,-99.99,,2013-06-15 17:52:00,
2013-06-15 11:01:00,66.0,28.0,-100.00,ESE,103,3.0,10.0,24,-99.99,,,-99.99,,2013-06-15 18:01:00,
2013-06-15 11:22:00,71.0,25.0,-100.00,North,-999,-999.0,-999.0,18,-99.99,,,-99.99,,2013-06-15 18:22:00,
2013-06-15 11:43:00,71.0,25.0,-100.00,East,93,4.0,10.0,18,-99.99,,,-99.99,,2013-06-15 18:43:00,
2013-06-15 11:53:00,71.0,25.0,-100.00,East,93,4.0,10.0,18,-99.99,,,-99.99,,2013-06-15 18:53:00,
2013-06-15 12:01:00,73.0,27.0,-100.00,East,86,5.0,11.0,18,-99.99,,,-99.99,,2013-06-15 19:01:00,
2013-06-15 12:11:00,73.0,27.0,-100.00,East,86,5.0,11.0,18,-99.99,,,-99.99,,2013-06-15 19:11:00,
2013-06-15 12:22:00,73.0,24.0,-100.00,ESE,113,4.0,11.0,16,-99.99,,,-99.99,,2013-06-15 19:22:00,
2013-06-15 12:33:00,73.0,24.0,-100.00,ESE,113,4.0,11.0,16,-99.99,,,-99.99,,2013-06-15 19:33:00,
2013-06-15 12:43:00,73.0,26.0,-100.00,ESE,107,5.0,9.0,17,-99.99,,,-99.99,,2013-06-15 19:43:00,
2013-06-15 12:53:00,73.0,26.0,-100.00,ESE,107,5.0,9.0,17,-99.99,,,-99.99,,2013-06-15 19:53:00,
2013-06-15 13:02:00,76.0,23.0,-100.00,ENE,59,5.0,12.0,14,-99.99,,,-99.99,,2013-06-15 20:02:00,
2013-06-15 13:11:00,76.0,23.0,-100.00,ENE,59,5.0,12.0,14,-99.99,,,-99.99,,2013-06-15 20:11:00,
2013-06-15 13:22:00,77.0,26.0,-100.00,NE,44,3.0,10.0,15,-99.99,,,-99.99,,2013-06-15 20:22:00,
2013-06-15 13:33:00,77.0,26.0,-100.00,NE,44,3.0,10.0,15,-99.99,,,-99.99,,2013-06-15 20:33:00,
2013-06-15 14:01:00,76.0,22.0,-100.00,NW,306,6.0,14.0,13,-99.99,,,-99.99,,2013-06-15 21:01:00,
2013-06-15 14:11:00,76.0,22.0,-100.00,NW,306,6.0,14.0,13,-99.99,,,-99.99,,2013-06-15 21:11:00,
2013-06-15 14:42:00,77.0,22.0,-100.00,WNW,288,6.0,16.0,13,-99.99,,,-99.99,,2013-06-15 21:42:00,
2013-06-15 14:52:00,77.0,22.0,-100.00,WNW,288,6.0,16.0,13,-99.99,,,-99.99,,2013-06-15 21:52:00,
2013-06-15 15:01:00,77.0,22.0,-100.00,WNW,288,6.0,16.0,13,-99.99,,,-99.99,,2013-06-15 22:01:00,
2013-06-15 15:11:00,76.0,22.0,-100.00,West,263,4.0,14.0,13,-99.99,,,-99.99,,2013-06-15 22:11:00,
2013-06-15 15:22:00,76.0,22.0,-100.00,West,263,4.0,14.0,13,-99.99,,,-99.99,,2013-06-15 22:22:00,
2013-06-15 15:32:00,75.0,23.0,-100.00,NW,312,11.0,23.0,14,-99.99,,,-99.99,,2013-06-15 22:32:00,
2013-06-15 15:42:00,75.0,23.0,-100.00,NW,312,11.0,23.0,14,-99.99,,,-99.99,,2013-06-15 22:42:00,
2013-06-15 15:53:00,76.0,23.0,-100.00,WNW,302,9.0,21.0,14,-99.99,,,-99.99,,2013-06-15 22:53:00,
2013-06-15 16:01:00,76.0,23.0,-100.00,WNW,302,9.0,21.0,14,-99.99,,,-99.99,,2013-06-15 23:01:00,
2013-06-15 16:11:00,75.0,23.0,-100.00,NW,313,14.0,26.0,14,-99.99,,,-99.99,,2013-06-15 23:11:00,
2013-06-15 16:22:00,75.0,23.0,-100.00,NW,313,14.0,26.0,14,-99.99,,,-99.99,,2013-06-15 23:22:00,
2013-06-15 16:33:00,75.0,23.0,-100.00,NW,313,14.0,26.0,14,-99.99,,,-99.99,,2013-06-15 23:33:00,
2013-06-15 16:42:00,75.0,24.0,-100.00,NW,316,11.0,26.0,15,-99.99,,,-99.99,,2013-06-15 23:42:00,
2013-06-15 16:53:00,75.0,27.0,-100.00,NW,315,12.0,23.0,17,-99.99,,,-99.99,,2013-06-15 23:53:00,
2013-06-15 17:01:00,75.0,27.0,-100.00,NW,315,12.0,23.0,17,-99.99,,,-99.99,,2013-06-16 00:01:00,
2013-06-15 17:11:00,75.0,27.0,-100.00,NW,315,12.0,23.0,17,-99.99,,,-99.99,,2013-06-16 00:11:00,
2013-06-15 17:22:00,75.0,27.0,-100.00,NW,315,12.0,23.0,17,-99.99,,,-99.99,,2013-06-16 00:22:00,
2013-06-15 17:34:00,74.0,28.0,-100.00,WNW,295,7.0,20.0,18,-99.99,,,-99.99,,2013-06-16 00:34:00,
2013-06-15 17:43:00,74.0,28.0,-100.00,WNW,295,7.0,20.0,18,-99.99,,,-99.99,,2013-06-16 00:43:00,
2013-06-15 17:52:00,74.0,28.0,-100.00,WNW,295,7.0,20.0,18,-99.99,,,-99.99,,2013-06-16 00:52:00,
2013-06-15 18:01:00,74.0,28.0,-100.00,WNW,295,7.0,20.0,18,-99.99,,,-99.99,,2013-06-16 01:01:00,